TimeCDT,TemperatureF,Dew PointF,Humidity,Sea Level PressureIn,VisibilityMPH,Wind Direction,Wind SpeedMPH,Gust SpeedMPH,PrecipitationIn,Events,Conditions,WindDirDegrees,DateUTC
12:15 AM,56.3,32.0,40,29.91,10.0,SE,11.5,-,N/A,,Overcast,130,2013-04-29 05:15:00
12:35 AM,55.9,32.0,40,29.90,10.0,SE,15.0,-,N/A,,Overcast,140,2013-04-29 05:35:00
12:55 AM,56.1,32.0,40,29.92,10.0,SE,8.1,19.6,N/A,,Overcast,130,2013-04-29 05:55:00
1:15 AM,55.8,32.0,41,29.94,10.0,SE,15.0,23.0,N/A,,Overcast,140,2013-04-29 06:15:00
1:35 AM,55.0,33.3,44,29.92,10.0,ESE,12.7,-,N/A,,Overcast,120,2013-04-29 06:35:00
1:55 AM,54.3,33.4,45,29.93,10.0,ESE,6.9,-,N/A,,Overcast,110,2013-04-29 06:55:00
2:15 AM,53.8,33.8,47,29.92,10.0,ESE,9.2,-,N/A,,Scattered Clouds,120,2013-04-29 07:15:00
2:35 AM,54.1,33.4,46,29.90,10.0,SE,15.0,-,N/A,,Mostly Cloudy,140,2013-04-29 07:35:00
2:55 AM,53.4,35.1,50,29.89,10.0,South,16.1,-,N/A,,Overcast,180,2013-04-29 07:55:00
3:15 AM,55.6,38.3,52,29.87,10.0,SSW,21.9,-,N/A,,Mostly Cloudy,200,2013-04-29 08:15:00
3:35 AM,55.6,38.5,53,29.87,10.0,SW,13.8,-,N/A,,Mostly Cloudy,220,2013-04-29 08:35:00
3:55 AM,55.0,38.7,54,29.87,10.0,SSW,16.1,20.7,N/A,,Overcast,200,2013-04-29 08:55:00
4:15 AM,54.1,38.7,56,29.87,10.0,SW,9.2,-,N/A,,Overcast,220,2013-04-29 09:15:00
4:35 AM,51.6,39.6,63,29.87,10.0,West,9.2,-,N/A,,Scattered Clouds,270,2013-04-29 09:35:00
4:55 AM,49.3,36.9,62,29.87,10.0,WNW,11.5,-,N/A,,Clear,290,2013-04-29 09:55:00
5:15 AM,46.4,36.0,67,29.87,10.0,West,10.4,-,N/A,,Clear,280,2013-04-29 10:15:00
5:35 AM,44.8,35.6,70,29.86,10.0,West,8.1,-,N/A,,Scattered Clouds,270,2013-04-29 10:35:00
5:55 AM,43.7,35.2,72,29.85,10.0,West,9.2,-,N/A,,Scattered Clouds,270,2013-04-29 10:55:00
6:15 AM,43.3,34.7,72,29.84,10.0,West,10.4,-,N/A,,Clear,280,2013-04-29 11:15:00
6:35 AM,42.3,34.7,75,29.84,10.0,West,8.1,-,N/A,,Clear,260,2013-04-29 11:35:00
6:55 AM,40.3,34.0,78,29.84,10.0,West,9.2,-,N/A,,Clear,260,2013-04-29 11:55:00
7:15 AM,39.4,33.8,80,29.84,10.0,WSW,6.9,-,N/A,,Clear,250,2013-04-29 12:15:00
7:35 AM,40.1,34.3,80,29.84,10.0,WSW,5.8,-,N/A,,Clear,250,2013-04-29 12:35:00
7:55 AM,42.1,35.4,77,29.83,10.0,WSW,8.1,-,N/A,,Clear,250,2013-04-29 12:55:00
8:15 AM,45.7,36.1,69,29.84,10.0,West,8.1,-,N/A,,Clear,260,2013-04-29 13:15:00
8:35 AM,48.7,36.9,64,29.83,10.0,SW,11.5,-,N/A,,Clear,230,2013-04-29 13:35:00
8:55 AM,52.0,39.4,62,29.83,10.0,SW,10.4,-,N/A,,Clear,220,2013-04-29 13:55:00
9:15 AM,56.7,40.6,55,29.82,10.0,SSW,12.7,-,N/A,,Clear,200,2013-04-29 14:15:00
9:35 AM,59.0,39.0,48,29.81,10.0,SW,16.1,-,N/A,,Clear,220,2013-04-29 14:35:00
9:55 AM,60.8,35.1,38,29.81,10.0,SSW,18.4,-,N/A,,Clear,200,2013-04-29 14:55:00
10:15 AM,63.5,34.0,33,29.79,10.0,SSW,19.6,23.0,N/A,,Clear,210,2013-04-29 15:15:00
10:35 AM,65.1,34.3,32,29.79,10.0,SSW,19.6,25.3,N/A,,Clear,200,2013-04-29 15:35:00
10:55 AM,64.9,34.7,33,29.79,10.0,SSW,18.4,24.2,N/A,,Clear,200,2013-04-29 15:55:00
11:15 AM,67.6,35.6,31,29.78,10.0,SSW,17.3,27.6,N/A,,Clear,200,2013-04-29 16:15:00
11:35 AM,67.5,34.5,30,29.78,10.0,SSW,19.6,-,N/A,,Clear,200,2013-04-29 16:35:00
11:55 AM,70.2,34.2,27,29.78,10.0,SW,17.3,24.2,N/A,,Clear,230,2013-04-29 16:55:00
12:15 PM,71.8,30.6,22,29.76,10.0,WSW,18.4,27.6,N/A,,Clear,240,2013-04-29 17:15:00
12:35 PM,72.9,30.2,21,29.75,10.0,WSW,21.9,28.8,N/A,,Scattered Clouds,250,2013-04-29 17:35:00
12:55 PM,72.9,25.0,17,29.75,10.0,WSW,17.3,33.4,N/A,,Scattered Clouds,240,2013-04-29 17:55:00
1:15 PM,73.8,25.9,17,29.74,10.0,WSW,21.9,32.2,N/A,,Clear,240,2013-04-29 18:15:00
1:35 PM,74.1,24.3,16,29.72,10.0,West,19.6,31.1,N/A,,Clear,270,2013-04-29 18:35:00
1:55 PM,74.7,23.5,15,29.71,10.0,WSW,20.7,29.9,N/A,,Clear,240,2013-04-29 18:55:00
2:15 PM,77.0,23.0,13,29.70,10.0,WSW,21.9,28.8,N/A,,Clear,250,2013-04-29 19:15:00
2:35 PM,77.0,22.5,13,29.69,10.0,WSW,18.4,27.6,N/A,,Clear,240,2013-04-29 19:35:00
2:55 PM,77.0,21.9,13,29.67,10.0,West,17.3,24.2,N/A,,Clear,260,2013-04-29 19:55:00
3:15 PM,75.6,21.4,13,29.66,10.0,West,10.4,23.0,N/A,,Clear,280,2013-04-29 20:15:00
3:35 PM,78.6,20.7,12,29.65,10.0,West,17.3,21.9,N/A,,Clear,270,2013-04-29 20:35:00
3:55 PM,79.7,17.6,10,29.64,10.0,West,18.4,26.5,N/A,,Clear,280,2013-04-29 20:55:00
4:15 PM,79.9,16.5,9,29.63,10.0,West,21.9,28.8,N/A,,Clear,270,2013-04-29 21:15:00
4:35 PM,79.9,17.2,10,29.62,10.0,West,21.9,31.1,N/A,,Clear,280,2013-04-29 21:35:00
4:55 PM,78.8,17.1,10,29.61,10.0,WSW,21.9,27.6,N/A,,Clear,240,2013-04-29 21:55:00
5:15 PM,77.7,17.4,10,29.61,10.0,West,19.6,25.3,N/A,,Clear,270,2013-04-29 22:15:00
5:35 PM,77.5,18.3,11,29.60,10.0,West,16.1,26.5,N/A,,Clear,270,2013-04-29 22:35:00
5:55 PM,77.5,19.2,11,29.60,10.0,West,16.1,-,N/A,,Clear,280,2013-04-29 22:55:00
6:15 PM,78.1,19.8,11,29.59,10.0,West,19.6,28.8,N/A,,Clear,260,2013-04-29 23:15:00
6:35 PM,77.0,20.1,12,29.59,10.0,West,16.1,27.6,N/A,,Clear,260,2013-04-29 23:35:00
6:55 PM,76.6,20.3,12,29.59,10.0,WSW,16.1,24.2,N/A,,Clear,250,2013-04-29 23:55:00
7:15 PM,75.6,20.3,13,29.59,10.0,West,16.1,-,N/A,,Clear,270,2013-04-30 00:15:00
7:35 PM,73.8,21.0,14,29.59,10.0,West,12.7,-,N/A,,Clear,280,2013-04-30 00:35:00
7:55 PM,72.0,21.9,15,29.59,10.0,WNW,11.5,-,N/A,,Clear,290,2013-04-30 00:55:00
8:15 PM,70.0,23.4,17,29.59,10.0,WNW,10.4,-,N/A,,Clear,290,2013-04-30 01:15:00
8:35 PM,67.8,23.9,19,29.59,10.0,WNW,8.1,-,N/A,,Clear,290,2013-04-30 01:35:00
8:55 PM,64.6,25.3,23,29.60,10.0,West,9.2,-,N/A,,Clear,270,2013-04-30 01:55:00
9:15 PM,65.3,24.6,21,29.60,10.0,West,11.5,-,N/A,,Clear,270,2013-04-30 02:15:00
9:35 PM,66.0,23.2,20,29.60,10.0,West,11.5,-,N/A,,Clear,260,2013-04-30 02:35:00
9:55 PM,63.7,24.8,23,29.61,10.0,SW,11.5,-,N/A,,Clear,220,2013-04-30 02:55:00
10:35 PM,63.9,25.3,23,29.61,10.0,SW,12.7,-,N/A,,Clear,230,2013-04-30 03:35:00
10:55 PM,62.2,26.4,26,29.61,10.0,WSW,9.2,-,N/A,,Clear,250,2013-04-30 03:55:00
11:15 PM,62.1,26.4,26,29.61,10.0,WSW,9.2,-,N/A,,Clear,250,2013-04-30 04:15:00
11:35 PM,61.9,25.5,25,29.61,10.0,WSW,11.5,-,N/A,,Clear,250,2013-04-30 04:35:00
11:55 PM,59.7,26.4,28,29.61,10.0,West,10.4,-,N/A,,Clear,260,2013-04-30 04:55:00